Flag for Germany Weather past 2 weeks in Paderborn, North Rhine-Westphalia, Germany

Now
45 °F

Passing clouds.


Feels Like: 43 °F
Forecast: 36 / 62 °F
Wind: 3 mph from Southeast

Location: Paderborn / Lippstadt


UV Index: 3 (Moderate)

Visibility: N/A


Pressure: 30.45 "Hg

Humidity: 61%

Dew point: 32 °F

Location of PaderbornLocation

Historic Weather in Paderborn

°F

Paderborn temperature yesterday

Maximum temperature yesterday: 45 °F (at 3:20 PM)
Minimum temperature yesterday: 36 °F (at 6:50 AM)
Average temperature yesterday: 41 °F

Past Weeks' High & Low Weather Summary

 TemperatureHumidityPressure
High72 °F (Apr 3, 3:50 PM)100% (Apr 5, 3:20 AM)30.45 "Hg (Apr 5, 3:20 AM)
Low28 °F (Apr 16, 4:50 AM)29% (Apr 3, 4:20 PM)29.62 "Hg (Apr 3, 6:50 AM)
Average52 °F69%29.99 "Hg
* Reported Apr 1 9:20 AM — Apr 16 9:20 AM, Paderborn, Weather by CustomWeather, © 2014

Note: Actual official high and low records may vary slightly from our data, if they occured in-between our weather recording intervals... More about our weather records

Advertising

Historic Weather Conditions — Data for Previous 24 hours

 ConditionsComfort  
Time TempWeatherWind HumidityBarometerVisibility
9:20 AM
Apr 16
41 °FSunny.2 mph76%30.45 "Hg10 mi
8:50 AM39 °FSunny.1 mph87%30.45 "Hg10 mi
8:20 AM34 °FSunny.1 mph100%30.42 "Hg10 mi
7:50 AM30 °FSunny.3 mph100%30.42 "Hg10 mi
7:20 AM28 °FClear.2 mph100%30.42 "Hg10 mi
6:50 AM28 °FClear.7 mph93%30.42 "Hg10 mi
6:20 AM28 °FClear.3 mph93%30.42 "Hg10 mi
5:50 AM28 °FClear.1 mph100%30.39 "Hg10 mi
5:20 AM28 °FPassing clouds.3 mph100%30.39 "HgN/A
4:50 AM28 °FPassing clouds.5 mph100%30.39 "HgN/A
4:20 AM30 °FClear.5 mph93%30.39 "Hg10 mi
3:50 AM32 °FPassing clouds.3 mph93%30.39 "HgN/A
12:20 AM36 °FPassing clouds.1 mph81%30.36 "HgN/A
11:50 PM
Apr 15
37 °FClear.3 mph75%30.36 "Hg10 mi
11:20 PM37 °FClear.3 mph75%30.33 "Hg10 mi
10:50 PM37 °FClear.2 mph75%30.33 "Hg10 mi
10:20 PM37 °FClear.2 mph75%30.33 "Hg10 mi
9:50 PM37 °FPassing clouds.3 mph75%30.33 "HgN/A
9:20 PM39 °FPassing clouds.3 mph70%30.33 "HgN/A
8:50 PM39 °FPassing clouds.5 mph65%30.30 "HgN/A
8:20 PM41 °FPassing clouds.6 mph61%30.30 "HgN/A
7:50 PM43 °FBroken clouds.8 mph57%30.27 "HgN/A
7:20 PM43 °FBroken clouds.8 mph61%30.27 "HgN/A
6:50 PM43 °FBroken clouds.7 mph61%30.27 "HgN/A
6:20 PM45 °FPartly sunny.8 mph53%30.27 "HgN/A
5:50 PM45 °FPartly sunny.9 mph53%30.27 "HgN/A
5:20 PM43 °FPartly sunny.8 mph61%30.27 "HgN/A
4:50 PM45 °FPartly sunny.10 mph53%30.27 "HgN/A
4:20 PM45 °FPartly sunny.9 mph53%30.27 "HgN/A
3:50 PM43 °FScattered clouds.10 mph61%30.27 "HgN/A
3:20 PM45 °FScattered clouds.10 mph57%30.27 "HgN/A
2:50 PM43 °FPartly sunny.10 mph61%30.27 "HgN/A
2:20 PM43 °FScattered clouds.12 mph57%30.27 "HgN/A
1:50 PM43 °FScattered clouds.12 mph61%30.27 "HgN/A
1:20 PM43 °FScattered clouds.10 mph66%30.27 "HgN/A
12:50 PM43 °FScattered clouds.9 mph61%30.27 "HgN/A
12:20 PM43 °FScattered clouds.13 mph61%30.27 "HgN/A
11:50 AM41 °FScattered clouds.9 mph70%30.27 "HgN/A
11:20 AM41 °FScattered clouds.9 mph70%30.24 "HgN/A
10:50 AM41 °FScattered clouds.9 mph70%30.24 "HgN/A
10:20 AM41 °FScattered clouds.10 mph76%30.24 "HgN/A
Weather by CustomWeather, © 2014

See weather overview